Regional Weather Roundup
Issued by NWS

Home | Current Version | Previous Version | Text Only | Print | Product List | Glossary Off
Versions: 1 2 3 4 5 6 7 8 9 10 11 12 13 14 15 16 17 18 19 20 21 22 23 24 25 26 27 28 29 30 31 32 33 34 35 36 37 38 39 40 41 42 43 44 45 46 47 48 49 50

000
ASUS43 KDMX 241406
RWRIA

WEATHER ROUNDUP FOR IOWA
NATIONAL WEATHER SERVICE DES MOINES IA
900 AM CDT TUE APR 24 2018

NOTE: "FAIR" INDICATES FEW OR NO CLOUDS BELOW 12,000 FEET WITH NO
SIGNIFICANT WEATHER AND/OR OBSTRUCTIONS TO VISIBILITY.

* - THESE STATIONS ARE NOT NWS STATIONS...THUS NOT UNDER NWS
QUALITY CONTROL.  THEY ALSO DO NOT REPORT WEATHER SUCH
AS PRECIPITATION OR FOG.

IAZ001>003-012>014-020>022-031>034-043>046-241500-
   NORTHWEST IOWA

CITY           SKY/WX    TMP DP  RH WIND       PRES   REMARKS
CARROLL *      SUNNY     55  41  58 CALM      30.14R
CHEROKEE *     CLOUDY    50  43  76 CALM      30.16R
DENISON *      SUNNY     52  43  71 CALM      30.16S
LE MARS *      CLOUDY    48  41  76 N3        30.16R
ORANGE CITY *  CLOUDY    52  43  71 CALM      30.16R
SHELDON *      CLOUDY    48  45  87 CALM      30.15R
SIOUX CITY     CLOUDY    50  42  74 CALM      30.16R
SPENCER        MOSUNNY   54  42  64 N5        30.16R
STORM LAKE *   MOSUNNY   57  41  54 NE5       30.15S
$$

IAZ055>058-069>071-079>083-090>094-241500-
   SOUTHWEST IOWA

CITY           SKY/WX    TMP DP  RH WIND       PRES   REMARKS
ATLANTIC *     SUNNY     54  43  66 CALM      30.14S
AUDUBON *      SUNNY     55  45  67 CALM      30.15R
CLARINDA *     SUNNY     54  37  54 NE5       30.16S
COUNCIL BLFS * SUNNY     57  41  54 CALM      30.15R
CRESTON *      SUNNY     59  36  41 NE3       30.14R
HARLAN  *      SUNNY     54  45  71 NE3       30.18R
LAMONI         SUNNY     57  36  45 N5        30.11S
RED OAK *      SUNNY     54  41  62 MISG      30.14S
SHENANDOAH *   SUNNY     52  37  58 CALM      30.15S
$$

IAZ047>049-059>061-072>074-084-241500-
   CENTRAL IOWA

CITY           SKY/WX    TMP DP  RH WIND       PRES   REMARKS
AMES           SUNNY     56  41  57 CALM      30.11F
ANKENY *       SUNNY     57  39  51 CALM      30.13S
BOONE *        SUNNY     59  39  47 CALM      30.11S
CHARITON *     SUNNY     55  36  47 NE5       30.11S
DES MOINES     MOSUNNY   59  37  44 CALM      30.12S
GRINNELL*      SUNNY     57  33  40 NE5       30.12S
KNOXVILLE *    SUNNY     55  32  41 CALM      30.10S
MARSHALLTOWN   SUNNY     58  39  49 NE5       30.10F
NEWTON *       SUNNY     57  34  41 CALM      30.11S
PELLA *        SUNNY     57  33  39 CALM      30.12S
PERRY *        FAIR      56  39  52 CALM      30.13S
$$

IAZ004>006-015-016-023>025-035-036-241500-
   NORTH CENTRAL IOWA

CITY           SKY/WX    TMP DP  RH WIND       PRES   REMARKS
ALGONA *       SUNNY     52  43  71 N5        30.15S
CLARION *      SUNNY     57  43  58 NE6       30.13S
ESTHERVILLE    SUNNY     50  44  80 NW6       30.15R
FORT DODGE *   SUNNY     53  44  71 N3        30.15R
MASON CITY     SUNNY     54  44  69 N8        30.14R
FOREST CITY *  FAIR      55  43  62 NE5       30.14S
WEBSTER CITY * SUNNY     57  43  58 CALM      30.11S
IOWA FALLS *   FAIR      58  39  50 CALM      30.12S
$$

IAZ007>011-017>019-026>030-037>042-050>054-066-241500-
   NORTHEAST IOWA

CITY           SKY/WX    TMP DP  RH WIND       PRES   REMARKS
CEDAR RAPIDS   FAIR      57  35  43 NE5       30.09F
CHARLES CITY * FAIR      55  41  58 CALM      30.12S
CLINTON *      FAIR      58  34  40 N10       30.09F
DECORAH *      FAIR      48  34  57 CALM      30.11S
DUBUQUE        FAIR      54  33  45 NE6       30.10F
MONTICELLO *   FAIR      55  37  50 CALM      30.10F
OELWEIN *      FAIR      59  36  41 N5        30.11F
WATERLOO       FAIR      54  41  61 CALM      30.11F
$$

IAZ064-065-067-068-078-241500-
   EAST CENTRAL IOWA

CITY           SKY/WX    TMP DP  RH WIND       PRES   REMARKS
DAVENPORT      FAIR      59  30  33 MISG      30.11F
IOWA CITY      FAIR      59  31  34 NE3       30.11F
MT. PLEASANT * SUNNY     57  32  38 NE8       30.10S
MUSCATINE *    FAIR      57  32  38 N5        30.10F
QUAD CITIES    FAIR      59  30  33 N5        30.08S
$$

IAZ062-063-075>077-085>089-095>099-241500-
   SOUTHEAST IOWA

CITY           SKY/WX    TMP DP  RH WIND       PRES   REMARKS
BURLINGTON     SUNNY     59  37  44 NE6       30.08F
FAIRFIELD *    SUNNY     55  37  50 NE5       30.09F
FORT MADISON * SUNNY     57  41  54 NE8       30.09F
KEOKUK *       MOSUNNY   57  48  72 NE6       30.08F
OSKALOOSA *    FAIR      55  33  43 E5        30.10F
CENTERVILLE *    N/A     57  37  47 CALM      30.12S
OTTUMWA        SUNNY     57  35  43 CALM      30.10F
WASHINGTON *   SUNNY     57  36  44 NE6       30.11S
$$

ABBREVIATIONS USED IN REMARKS
   TC - TEMPERATURES IN CELSIUS
  WCI - WIND CHILL INDEX
   HX - HEAT INDEX
  VSB - VISIBILITY
$$





USA.gov is the U.S. government's official web portal to all federal, state and local government web resources and services.